User: anonymous   Login
Location: Chippewa Lake
(41.0698°N, 81.9010°W)
Time: 21:59:56
(UTC+00:00)
Language:

Cosmos 1707 - Orbit

View from above orbital plane
View from above orbital plane
View from above satellite
View from above satellite

Ground track
Ground track

The orbit data is extracted from the following two-line orbital elements,

1 16326U 85113A   21212.58921194  .00000435  00000-0  21710-4 0  9990
2 16326  82.5116 167.7940 0011518 131.0989 229.1239 15.14751672944840
Epoch (UTC): 31 July 2021 14:08:27
Eccentricity: 0.0011518
inclination: 82.5116°
perigee height: 514 km
apogee height: 529 km
right ascension of ascending node: 167.7940°
argument of perigee: 131.0989°
revolutions per day: 15.14751672
mean anomaly at epoch: 229.1239°
orbit number at epoch: 94484

The dashed part of the orbit path shows where the satellite is in the earth's shadow,  

DLR